EN

Hourly Weather Amfreville-la-Mi-Voie

Today, 22 January, Friday

Time Temperature Precipitation Wind Pressure Humidity
00:00 +4°C° 0.3 mm 4 mps 730 mmHg 89%
01:00 +3°C° 0 mm 4 mps 730 mmHg 89%
02:00 +2°C° 0 mm 3 mps 731 mmHg 89%
03:00 +2°C° 0 mm 3 mps 731 mmHg 89%
04:00 +3°C° 0 mm 2 mps 732 mmHg 90%
05:00 +3°C° 0 mm 2 mps 732 mmHg 92%
06:00 +2°C° 0 mm 2 mps 732 mmHg 93%
07:00 +3°C° 0 mm 2 mps 733 mmHg 92%
08:00 +3°C° 0 mm 2 mps 733 mmHg 90%
09:00 +4°C° 0 mm 2 mps 733 mmHg 89%
10:00 +5°C° 0 mm 2 mps 734 mmHg 85%
11:00 +6°C° 0 mm 2 mps 734 mmHg 82%
12:00 +5°C° 0 mm 3 mps 735 mmHg 79%
13:00 +5°C° 0.1 mm 3 mps 735 mmHg 79%
14:00 +5°C° 0.1 mm 3 mps 735 mmHg 80%
15:00 +5°C° 0.1 mm 3 mps 735 mmHg 80%
16:00 +4°C° 0 mm 3 mps 735 mmHg 84%
17:00 +3°C° 0 mm 3 mps 735 mmHg 87%
18:00 +3°C° 0 mm 2 mps 735 mmHg 90%
19:00 +2°C° 0 mm 3 mps 735 mmHg 90%
20:00 +2°C° 0 mm 3 mps 735 mmHg 91%
21:00 +2°C° 0 mm 3 mps 735 mmHg 91%
22:00 +1°C° 0 mm 4 mps 735 mmHg 90%
23:00 +1°C° 0 mm 4 mps 735 mmHg 90%

Tomorrow, 23 January, Saturday

Time Temperature Precipitation Wind Pressure Humidity
00:00 +1°C° 0 mm 5 mps 734 mmHg 90%
01:00 +1°C° 0 mm 5 mps 734 mmHg 90%
02:00 +1°C° 0 mm 5 mps 734 mmHg 91%
03:00 0°C° 0 mm 5 mps 734 mmHg 91%
04:00 0°C° 0 mm 4 mps 734 mmHg 92%
05:00 +1°C° 0 mm 3 mps 734 mmHg 93%
06:00 +1°C° 0 mm 2 mps 734 mmHg 94%
07:00 +2°C° 0 mm 2 mps 734 mmHg 93%
08:00 +3°C° 0 mm 1 mps 735 mmHg 91%
09:00 +3°C° 0 mm 0 mps 735 mmHg 90%
10:00 +4°C° 0.3 mm 1 mps 735 mmHg 89%
11:00 +4°C° 0.3 mm 1 mps 736 mmHg 89%
12:00 +4°C° 0.3 mm 2 mps 736 mmHg 88%
13:00 +4°C° 0.6 mm 2 mps 736 mmHg 87%
14:00 +3°C° 0.6 mm 3 mps 736 mmHg 85%
15:00 +3°C° 0.6 mm 3 mps 736 mmHg 83%
16:00 +2°C° 0.1 mm 3 mps 737 mmHg 85%
17:00 +2°C° 0.1 mm 2 mps 737 mmHg 87%
18:00 +1°C° 0.1 mm 2 mps 738 mmHg 89%
19:00 +1°C° 0 mm 2 mps 738 mmHg 89%
20:00 -1°C° 0 mm 2 mps 738 mmHg 89%
21:00 -1°C° 0 mm 2 mps 738 mmHg 90%
22:00 -1°C° 0 mm 2 mps 738 mmHg 90%
23:00 -1°C° 0 mm 2 mps 738 mmHg 90%

Day after tomorrow, 24 January, Sunday

Time Temperature Precipitation Wind Pressure Humidity
00:00 -2°C° 0 mm 2 mps 738 mmHg 91%
01:00 -1°C° 0 mm 2 mps 738 mmHg 90%
02:00 -1°C° 0 mm 2 mps 738 mmHg 89%
03:00 -1°C° 0 mm 2 mps 738 mmHg 89%
04:00 -1°C° 0.4 mm 2 mps 738 mmHg 91%
05:00 -1°C° 0.4 mm 2 mps 738 mmHg 93%
06:00 -1°C° 0.4 mm 2 mps 737 mmHg 96%
07:00 -1°C° 1.2 mm 3 mps 737 mmHg 96%
08:00 -1°C° 1.2 mm 3 mps 737 mmHg 97%
09:00 -1°C° 1.2 mm 4 mps 737 mmHg 98%
10:00 -1°C° 0.1 mm 5 mps 736 mmHg 96%
11:00 0°C° 0.1 mm 5 mps 736 mmHg 94%
12:00 -1°C° 0.1 mm 6 mps 736 mmHg 92%
13:00 -1°C° 0.1 mm 6 mps 736 mmHg 91%
14:00 -1°C° 0.1 mm 6 mps 736 mmHg 91%
15:00 -1°C° 0.1 mm 6 mps 736 mmHg 90%
16:00 0°C° 0.1 mm 5 mps 737 mmHg 90%
17:00 -1°C° 0.1 mm 5 mps 738 mmHg 90%
18:00 -1°C° 0.1 mm 4 mps 739 mmHg 90%
19:00 -1°C° 0 mm 4 mps 740 mmHg 90%
20:00 -1°C° 0 mm 3 mps 740 mmHg 91%
21:00 -1°C° 0 mm 2 mps 741 mmHg 91%
22:00 -1°C° 0.1 mm 2 mps 742 mmHg 91%
23:00 -1°C° 0.1 mm 2 mps 743 mmHg 91%

25 January, Monday

Time Temperature Precipitation Wind Pressure Humidity
00:00 -1°C° 0.1 mm 3 mps 743 mmHg 91%
01:00 -1°C° 0.1 mm 3 mps 743 mmHg 91%
02:00 -1°C° 0.1 mm 3 mps 744 mmHg 92%
03:00 -1°C° 0.1 mm 3 mps 744 mmHg 93%
04:00 -1°C° 0.6 mm 4 mps 744 mmHg 93%
05:00 -1°C° 0.6 mm 5 mps 744 mmHg 94%
06:00 0°C° 0.6 mm 5 mps 744 mmHg 94%
07:00 0°C° 0.1 mm 5 mps 745 mmHg 91%
08:00 0°C° 0.1 mm 5 mps 745 mmHg 89%
09:00 +1°C° 0.1 mm 5 mps 745 mmHg 86%
10:00 +1°C° 0.1 mm 6 mps 746 mmHg 84%
11:00 +2°C° 0.1 mm 6 mps 746 mmHg 82%
12:00 +3°C° 0.1 mm 6 mps 747 mmHg 80%
13:00 +3°C° 0 mm 5 mps 747 mmHg 80%
14:00 +3°C° 0 mm 5 mps 747 mmHg 80%
15:00 +3°C° 0 mm 4 mps 747 mmHg 80%
16:00 +1°C° 0 mm 4 mps 748 mmHg 83%
17:00 +1°C° 0 mm 3 mps 748 mmHg 85%
18:00 0°C° 0 mm 3 mps 749 mmHg 88%
19:00 0°C° 0 mm 3 mps 749 mmHg 88%
20:00 0°C° 0 mm 3 mps 749 mmHg 89%
21:00 +1°C° 0 mm 2 mps 750 mmHg 89%
22:00 0°C° 0 mm 3 mps 750 mmHg 90%
23:00 0°C° 0 mm 3 mps 750 mmHg 90%

26 January, Tuesday

Time Temperature Precipitation Wind Pressure Humidity
00:00 0°C° 0 mm 3 mps 750 mmHg 91%
01:00 0°C° 0 mm 3 mps 750 mmHg 91%
02:00 -1°C° 0 mm 3 mps 751 mmHg 92%
03:00 -1°C° 0 mm 3 mps 751 mmHg 92%
04:00 -1°C° 0 mm 2 mps 751 mmHg 92%
05:00 +1°C° 0 mm 2 mps 751 mmHg 91%
06:00 +1°C° 0 mm 2 mps 751 mmHg 91%
07:00 +2°C° 0 mm 2 mps 751 mmHg 92%
08:00 +1°C° 0 mm 3 mps 751 mmHg 92%
09:00 +2°C° 0 mm 3 mps 751 mmHg 93%
10:00 +3°C° 0 mm 4 mps 750 mmHg 91%
11:00 +3°C° 0 mm 5 mps 750 mmHg 89%
12:00 +5°C° 0 mm 5 mps 750 mmHg 87%
13:00 +3°C° 0.6 mm 6 mps 749 mmHg 89%
14:00 +3°C° 0.6 mm 6 mps 748 mmHg 92%
15:00 +3°C° 0.6 mm 6 mps 747 mmHg 94%
16:00 +3°C° 0.6 mm 6 mps 747 mmHg 93%
17:00 +4°C° 0.6 mm 6 mps 747 mmHg 93%
18:00 +4°C° 0.6 mm 6 mps 746 mmHg 93%
19:00 +5°C° 0 mm 6 mps 747 mmHg 93%
20:00 +6°C° 0 mm 7 mps 747 mmHg 93%
21:00 +8°C° 0 mm 7 mps 747 mmHg 94%
22:00 +7°C° 0 mm 6 mps 748 mmHg 94%
23:00 +7°C° 0 mm 6 mps 748 mmHg 94%

27 January, Wednesday

Time Temperature Precipitation Wind Pressure Humidity
00:00 +5°C° 0 mm 6 mps 749 mmHg 94%
01:00 +5°C° 0 mm 6 mps 749 mmHg 93%
02:00 +5°C° 0 mm 6 mps 750 mmHg 93%
03:00 +5°C° 0 mm 6 mps 750 mmHg 93%
04:00 +6°C° 0 mm 5 mps 750 mmHg 94%
05:00 +5°C° 0 mm 5 mps 751 mmHg 95%
06:00 +5°C° 0 mm 4 mps 751 mmHg 96%
07:00 +6°C° 0 mm 4 mps 751 mmHg 96%
08:00 +6°C° 0 mm 4 mps 752 mmHg 95%
09:00 +7°C° 0 mm 4 mps 752 mmHg 95%
10:00 +7°C° 0 mm 4 mps 752 mmHg 93%
11:00 +8°C° 0 mm 4 mps 752 mmHg 91%
12:00 +8°C° 0 mm 4 mps 752 mmHg 89%
13:00 +10°C° 0 mm 4 mps 752 mmHg 88%
14:00 +10°C° 0 mm 4 mps 752 mmHg 87%
15:00 +10°C° 0 mm 3 mps 751 mmHg 86%
16:00 +8°C° 0 mm 4 mps 751 mmHg 88%
17:00 +8°C° 0 mm 4 mps 751 mmHg 90%
18:00 +7°C° 0 mm 5 mps 750 mmHg 92%
19:00 +7°C° 0.7 mm 5 mps 750 mmHg 93%
20:00 +8°C° 0.7 mm 6 mps 749 mmHg 93%
21:00 +8°C° 0.7 mm 6 mps 748 mmHg 94%
22:00 +8°C° 1.6 mm 7 mps 747 mmHg 93%
23:00 +9°C° 1.6 mm 8 mps 747 mmHg 92%
Show more